"Pseudo-MPEC" for C46DTT1

Created 2026 Jun 5 21:35:02 UT using Find_Orb

Click here for an explanation of pseudo-MPECs

 
 Astrometry: 
     C46DTT1*1C2026 06 05.26694113 06 05.735-02 12 48.24   ~657K 18.45GVNEOCP703
     C46DTT1 1C2026 06 05.26917313 06 10.336-02 14 42.00   ~657K 18.53GVNEOCP703
     C46DTT1 1C2026 06 05.27140713 06 14.922-02 16 34.46   ~657K 18.10GVNEOCP703
     C46DTT1 1C2026 06 05.27363613 06 19.584-02 18 25.67   ~657K 18.44GVNEOCP703
     C46DTT1 1C2026 06 05.30877013 07 32.200-02 47 55.75   ~657Z 17.92GVNEOCPI52
     C46DTT1 1C2026 06 05.30894213 07 32.563-02 48 04.57   ~657Z 18.23GVNEOCPI52
     C46DTT1 1C2026 06 05.30911213 07 32.891-02 48 13.21   ~657Z 18.06GVNEOCPI52
     C46DTT1 1C2026 06 05.30928813 07 33.265-02 48 21.64   ~657Z 18.01GVNEOCPI52
     C46DTT1 KB2026 06 05.86113713 26 41.43 -10 01 25.6    ~65LK 18.3 GVNEOCPG02
     C46DTT1 KB2026 06 05.86544413 26 49.24 -10 04 31.9    ~65LK 17.8 GVNEOCPG02
     C46DTT1 KB2026 06 05.86982513 26 57.21 -10 07 40.8    ~65LK 18.5 GVNEOCPG02
     C46DTT1 7B2026 06 05.87475313 27 13.147-10 10 20.16   ~65LZ 18.6 GXNEOCPZ84
     C46DTT1 7B2026 06 05.88219913 27 26.393-10 15 42.18   ~65LZ 18.5 GXNEOCPZ84
     C46DTT1 7B2026 06 05.88308713 27 27.989-10 16 20.04   ~65LZ 18.5 GXNEOCPZ84

Station data:
(703) Catalina Sky Survey  (N32.417029 W110.732640)
   US/Arizona.  Observer E. J. Christensen. Measurers T. Beuden, V. F.
   Carvajal, D. Fay, J. B. Fazekas, D. C. Fuls, A. R. Gibbs, A. D. Grauer, H.
   Gröller, J. K. Hogan, R. A. Kowalski, S. M. Larson, G. J. Leonard, D.
   Rankin, R. L. Seaman, F. C. Shelly, K. W. Wierzchoś. 0.68 m Schmidt + 10K
   CCD.
(G02) KYSUCE Observatory, Kysucke Nove Mesto  (N49.307313 E18.765390)
   Slovakia.  Observer M. Urbanik. 0.40-m f/4.4 reflector + CCD.
(I52) Steward Observatory, Mt. Lemmon Station  (N32.442570 W110.788920)
   US/Arizona. Measurers T. Beuden, V. F. Carvajal, D. Fay, J. B. Fazekas, D.
   C. Fuls, A. R. Gibbs, A. D. Grauer, H. Gröller, J. K. Hogan, R. A.
   Kowalski, S. M. Larson, G. J. Leonard, D. Rankin, R. L. Seaman, F. C.
   Shelly, K. W. Wierzchoś. 1.0-m prime focus + CCD.
(Z84) Calar Alto-Schmidt  (N37.224006 W2.548160)  Spain.  Observer F. Ocaña.
   Measurers F. Ocaña, M. Micheli, R. Kresken. 0.8-m f/3 Schmidt + CCD.

Orbital elements:  C46DTT1
   Perihelion 2026 Apr 7.007148 +/- 0.144 TT =  0:10:17.5 (JD 2461137.507148)
Epoch 2026 Jun  6.0 TT = JDT 2461197.5   Earth MOID: 0.0062      AutoNEOCP
M  44.310953715 +/- 0.21            (J2000 ecliptic)
n   0.738603882 +/- 0.00187         Peri.  105.751729 +/- 0.18
a   1.212071739 +/- 0.00205         Node    73.938698 +/- 0.0032
e   0.29305747 +/- 0.00123          Incl.    9.036202 +/- 0.032
P   1.334/487.397d         H 25.23  G  0.15   U  8.5
q 0.856865051 +/- 0.00066    Q 1.567278427 +/- 0.00404
From 14 observations 2026 June 5 (14.8 hr); mean residual 0".38
Residuals in arcseconds: 
260605 703  .32-  .13-    260605 I52  .27+  .08-    260605 G02  .22-  .09-    
260605 703  .22-  .87-    260605 I52  .11-  .20-    260605 Z84  .11-  .53+    
260605 703  .42-  .28-    260605 I52  .03+  .19+    260605 Z84  .01-  .32-    
260605 703  .64+  1.2+    260605 G02  .31+  .11-    260605 Z84  .26+  .06+    
260605 I52  .17+  .12+    260605 G02  .15-  .26-    

Ephemerides (geocentric):
Date (UTC) HH   RA             Dec           delta  r     elong  mag " sig PA
---- --------  ------------   ------------  ------ ------ -----  --- --------
2026 06 05 22  13 28 35.783   -10 34 40.68  .01913 1.0269 129.5 18.5 1.55   5
2026 06 05 23  13 29 55.257   -11 04 07.07  .01925 1.0271 129.9 18.5 1.72 179
2026 06 06 00  13 31 14.042   -11 33 10.90  .01937 1.0273 130.4 18.5 1.92 174
2026 06 06 01  13 32 32.142   -12 01 52.19  .01948 1.0275 130.8 18.6 2.15 170
2026 06 06 02  13 33 49.560   -12 30 10.97  .01961 1.0277 131.2 18.6 2.40 166
2026 06 06 03  13 35 06.301   -12 58 07.31  .01973 1.0279 131.6 18.6 2.67 163
2026 06 06 04  13 36 22.369   -13 25 41.26  .01986 1.0280 132.0 18.6 2.96 161
2026 06 06 05  13 37 37.768   -13 52 52.92  .01998 1.0282 132.4 18.6 3.26 158
2026 06 06 06  13 38 52.504   -14 19 42.39  .02011 1.0284 132.8 18.6 3.59 157
2026 06 06 07  13 40 06.580   -14 46 09.78  .02024 1.0286 133.2 18.6 3.92 155
2026 06 06 08  13 41 20.002   -15 12 15.22  .02038 1.0288 133.5 18.6 4.27 154
2026 06 06 09  13 42 32.774   -15 37 58.85  .02051 1.0290 133.9 18.6 4.63 152
2026 06 06 10  13 43 44.900   -16 03 20.83  .02065 1.0292 134.3 18.6 5.00 151
2026 06 06 11  13 44 56.386   -16 28 21.31  .02078 1.0294 134.6 18.6 5.38 151
2026 06 06 12  13 46 07.236   -16 53 00.49  .02092 1.0296 135.0 18.6 5.77 150
2026 06 06 13  13 47 17.456   -17 17 18.53  .02106 1.0298 135.3 18.6 6.17 149
2026 06 06 14  13 48 27.050   -17 41 15.64  .02121 1.0300 135.6 18.6 6.58 148
2026 06 06 15  13 49 36.023   -18 04 52.00  .02135 1.0302 135.9 18.6 6.99 148
2026 06 06 16  13 50 44.380   -18 28 07.84  .02149 1.0304 136.3 18.6 7.41 147
2026 06 06 17  13 51 52.127   -18 51 03.35  .02164 1.0305 136.6 18.6 7.83 147
2026 06 06 18  13 52 59.268   -19 13 38.77  .02179 1.0307 136.9 18.6 8.26 147
2026 06 06 19  13 54 05.809   -19 35 54.31  .02194 1.0309 137.2 18.6 8.69 146
2026 06 06 20  13 55 11.754   -19 57 50.21  .02209 1.0311 137.5 18.6 9.13 146
2026 06 06 21  13 56 17.109   -20 19 26.69  .02224 1.0313 137.8 18.7 9.57 145
2026 06 06 22  13 57 21.879   -20 40 44.00  .02240 1.0315 138.0 18.7 10.0 145
2026 06 06 23  13 58 26.069   -21 01 42.37  .02255 1.0317 138.3 18.7 10.5 145
2026 06 07 00  13 59 29.684   -21 22 22.04  .02271 1.0319 138.6 18.7 10.9 145
2026 06 07 01  14 00 32.730   -21 42 43.27  .02286 1.0321 138.8 18.7 11.4 144
2026 06 07 02  14 01 35.210   -22 02 46.29  .02302 1.0323 139.1 18.7 11.8 144
2026 06 07 03  14 02 37.132   -22 22 31.35  .02318 1.0325 139.3 18.7 12.3 144
2026 06 07 04  14 03 38.499   -22 41 58.69  .02334 1.0327 139.6 18.7 12.7 144
2026 06 07 05  14 04 39.318   -23 01 08.58  .02351 1.0329 139.8 18.7 13.2 143
2026 06 07 06  14 05 39.592   -23 20 01.25  .02367 1.0331 140.1 18.7 13.6 143
2026 06 07 07  14 06 39.328   -23 38 36.96  .02383 1.0333 140.3 18.7 14.1 143
2026 06 07 08  14 07 38.530   -23 56 55.95  .02400 1.0334 140.5 18.7 14.5 143
2026 06 07 09  14 08 37.203   -24 14 58.48  .02416 1.0336 140.7 18.8 15.0 143
2026 06 07 10  14 09 35.353   -24 32 44.78  .02433 1.0338 141.0 18.8 15.4 142
2026 06 07 11  14 10 32.985   -24 50 15.10  .02450 1.0340 141.2 18.8 15.9 142
2026 06 07 12  14 11 30.103   -25 07 29.69  .02467 1.0342 141.4 18.8 16.3 142
2026 06 07 13  14 12 26.713   -25 24 28.80  .02484 1.0344 141.6 18.8 16.8 142
2026 06 07 14  14 13 22.820   -25 41 12.65  .02501 1.0346 141.8 18.8 17.2 142
2026 06 07 15  14 14 18.428   -25 57 41.50  .02518 1.0348 142.0 18.8 17.7 142
2026 06 07 16  14 15 13.543   -26 13 55.58  .02536 1.0350 142.2 18.8 18.1 141
2026 06 07 17  14 16 08.169   -26 29 55.12  .02553 1.0352 142.3 18.8 18.6 141
2026 06 07 18  14 17 02.312   -26 45 40.36  .02571 1.0354 142.5 18.8 19.0 141
2026 06 07 19  14 17 55.976   -27 01 11.53  .02588 1.0356 142.7 18.9 19.5 141
2026 06 07 20  14 18 49.167   -27 16 28.86  .02606 1.0358 142.9 18.9 19.9 141
2026 06 07 21  14 19 41.888   -27 31 32.57  .02623 1.0360 143.0 18.9 20.3 141